This is the latest recevied weather packets stored in our database for station/object WA3NOA-2. If no packets are shown the sender has not sent any weather packets the latest 1 day(s).
| Time | Temp. | Humidity | Pressure | Rain* | Wind** | Luminosity | Snow |
|---|---|---|---|---|---|---|---|
| 1778087227 | 15.56° C | 93% | 1001.9 hPa | 0.25 mm | - | - | - |
| 1778086988 | 15.56° C | 93% | 1002 hPa | 0.25 mm | - | - | - |
| 1778086927 | 15.56° C | 93% | 1002 hPa | 0.25 mm | - | - | - |
| 1778086627 | 15.56° C | 93% | 1002 hPa | 0.25 mm | - | - | - |
| 1778086027 | 15.56° C | 93% | 1001.9 hPa | 0.76 mm | - | - | - |
| 1778085727 | 15.56° C | 93% | 1001.8 hPa | 1.02 mm | - | - | - |
| 1778085427 | 15.56° C | 93% | 1002 hPa | 1.02 mm | - | - | - |
| 1778085127 | 15.56° C | 93% | 1001.9 hPa | 1.78 mm | - | - | - |
| 1778084527 | 15.56° C | 93% | 1002.1 hPa | 2.54 mm | - | - | - |
| 1778084227 | 15.56° C | 93% | 1001.9 hPa | 2.54 mm | - | - | - |
| 1778083927 | 15.56° C | 93% | 1001.8 hPa | 2.54 mm | - | - | - |
| 1778083388 | 15.56° C | 93% | 1002.3 hPa | 3.3 mm | - | - | - |
| 1778082488 | 15.56° C | 92% | 1002.9 hPa | 3.3 mm | - | - | - |
| 1778081588 | 15.56° C | 91% | 1003.1 hPa | 2.54 mm | - | - | - |
| 1778078888 | 16.11° C | 88% | 1002.9 hPa | 0.76 mm | - | - | - |
| 1778077988 | 16.11° C | 87% | 1003 hPa | 0.51 mm | - | - | - |
| 1778077088 | 16.67° C | 84% | 1002.9 hPa | 0.25 mm | - | - | - |
| 1778076188 | 17.22° C | 81% | 1003 hPa | 0 mm | - | - | - |
| 1778074389 | 17.78° C | 79% | 1002.8 hPa | 0 mm | - | - | - |
| 1778072588 | 17.78° C | 77% | 1002.9 hPa | 0 mm | - | - | - |
| 1778070788 | 18.33° C | 77% | 1003 hPa | 0 mm | - | - | - |
| 1778069888 | 17.78° C | 77% | 1003.1 hPa | 0 mm | - | - | - |
| 1778068988 | 17.78° C | 77% | 1002.9 hPa | 0 mm | - | - | - |
| 1778068088 | 17.78° C | 77% | 1002.7 hPa | 0 mm | - | - | - |
| 1778064488 | 17.78° C | 77% | 1002.4 hPa | 0 mm | - | - | - |
* Rain latest hour (hover to see other rain measurements)
** Current wind speed in m/s (hover to see current wind gust speed)